Location: Wingville
(42.9917°N, 90.4915°W)
Time: 10:49:47
(UTC+00:00)

VELOX 1 - Visible Passes

Search period start: 25 June 2022 00:00
Search period end: 05 July 2022 00:00
Orbit: 625 x 638 km, 98.4° (Epoch: 24 June)

Date Brightness Start Highest point End Pass type
(mag) Time Alt. Az. Time Alt. Az. Time Alt. Az.
26 Jun ? 09:11:06 10° E 09:13:28 14° ENE 09:15:50 10° NNE visible
27 Jun ? 09:30:45 10° ESE 09:34:08 22° ENE 09:37:33 10° NNE visible
28 Jun ? 09:50:55 10° SE 09:54:53 35° ENE 09:58:54 10° N visible
30 Jun ? 08:59:58 10° ENE 09:00:57 11° ENE 09:01:57 10° NE visible
01 Jul ? 09:18:47 10° ESE 09:21:36 17° ENE 09:24:25 10° NNE visible
02 Jul ? 09:38:39 10° ESE 09:42:16 26° ENE 09:45:56 10° N visible
